Regional Weather Roundup
Issued by NWS

Home | Current Version | Previous Version | Graphics & Text | Print | Product List | Glossary On
Versions: 1 2 3 4 5 6 7 8 9 10 11 12 13 14 15 16 17 18 19 20 21 22 23 24 25 26 27 28 29 30 31 32 33 34 35 36 37 38 39 40 41 42 43 44 45 46 47 48 49 50
000
ASUS44 KMEG 050510
RWRTN
TENNESSEE HOURLY STATE WEATHER ROUNDUP
NATIONAL WEATHER SERVICE MEMPHIS TN
1200 AM CDT WED AUG 05 2015

TNZ002-004-019-021-049-052-054-088>092-050600-
WEST TENNESSEE

CITY           SKY/WX    TMP DP  RH WIND       PRES   REMARKS
MEMPHIS INTL   CLOUDY    88  68  51 CALM      29.99S HX  91
NWS MEMPHIS      N/A     79 N/A N/A MISG        N/A
JACKSON        CLOUDY    79  75  87 SW5       30.00S
DYERSBURG        N/A    N/A N/A N/A MISG        N/A
UNION CITY     CLEAR     77  77 100 CALM      29.99S
PARIS          CLEAR     77  73  88 NE5       30.03R
LEXINGTON      CLEAR     77  77 100 CALM      30.01S
$$

TNZ008-025-027-028-033-062-065-066-050600-
NORTH MIDDLE TENNESSEE

CITY           SKY/WX    TMP DP  RH WIND       PRES   REMARKS
NASHVILLE      CLOUDY    81  71  71 NE7       30.02F
CLARKSVILLE    CLOUDY    73  68  84 CALM      30.02S
SMYRNA         CLOUDY    77  73  87 CALM      30.03S
COOKEVILLE     CLEAR     75  73  94 CALM      30.04F
CROSSVILLE     PTCLDY    74  69  85 NE3       30.11F
$$

TNZ061-075-076-078-094-096-097-050600-
SOUTH MIDDLE TENNESSEE

CITY           SKY/WX    TMP DP  RH WIND       PRES   REMARKS
FAYETTEVILLE     N/A     79  66  65 CALM      30.04S
TULLAHOMA      CLEAR     75  70  83 CALM      30.06S
WINCHESTER     CLEAR     73  72  94 CALM      30.04F
MCMINNVILLE    CLEAR     75  75 100 N3G125    30.05S
COLUMBIA       CLEAR     77  77 100 CALM      30.02R
SHELBYVILLE    CLEAR     75  73  94 CALM      30.04S
$$

TNZ017-018-042-046-047-050600-
NORTHEAST TENNESSEE

CITY           SKY/WX    TMP DP  RH WIND       PRES   REMARKS
TRI CITIES     FOG       67  66  97 CALM      30.11R VSB 1/2
ELIZABETHTON   CLEAR     63  63 100 CALM      30.13R
$$

TNZ012-013-036-069-073-074-050600-
CENTRAL EAST TENNESSEE

CITY           SKY/WX    TMP DP  RH WIND       PRES   REMARKS
KNOXVILLE      MOCLDY    76  65  68 N6        30.06R
OAK RIDGE      PTCLDY    77  69  76 CALM      30.08S
GATLINBURG     CLEAR     72  64  78 CALM      30.07S
MORRISTOWN     CLEAR     68  66  94 CALM      30.11R
$$

TNZ083-085-099-050600-
SOUTHEAST TENNESSEE

CITY           SKY/WX    TMP DP  RH WIND       PRES   REMARKS
CHATTANOOGA    PTCLDY    81  73  76 NW3       30.03S
$$

SKY/WX REPORTED AS FAIR MEANS FEW OR NO CLOUDS BELOW
12 THOUSAND FEET.




USA.gov is the U.S. government's official web portal to all federal, state and local government web resources and services.